www.pogodaiklimat.ru

Погода и климат >> Архив погоды >> Канада >> Baker Lake Airport


ПОГОДА в Baker Lake Airport

  • Прогноз погоды в Baker Lake Airport
  • Монитор погоды в Baker Lake Airport
  • Климат города

АРХИВ ПОГОДЫ в Baker Lake Airport

Время (UTC), дата Ветер
(напр.,м/с)
 
Видим.   Явления Облачность Т
(С)
Тd
(С)
f
(%)
Тe
(С)
Тes
(С)
Комфортность P
(гПа)
Po
(гПа)
Тmin
(С)
Tmax
(С)
R
(мм)
R24
(мм)
S
(см)
03 16.06 Ю 2 30 км ясно +6.0 -0.4 63 +4 +5 1018.4 1016.1
06 16.06 Ю 1 30 км 1/0
[Ac trans Ci fib]
+4.4 +0.3 75 +3 +3 1018.0 1015.7 -1.3 +14.9 20
09 16.06 С 1 30 км 3/0
[]
+2.6 0.0 83 +2 +2 1017.8 1015.5
12 16.06 Ю 2 30 км 4/0
[Ac trans Ci fib]
+6.1 +1.0 70 +4 +7 1017.8 1015.5 +1.2 +14.9
15 16.06 В 2 30 км 9/9 600 м
[]
+8.6 +2.8 67 +7 +8 1017.1 1014.7
18 16.06 ЮВ 2 30 км 9/1 600 м
[Sc Ac trans]
+9.0 +2.5 64 +8 +14 1016.4 1014.0 +1.2 +9.7
21 16.06 В 4 30 км 5/5 600 м
[]
+11.9 +1.1 48 +10 +14 1015.5 1013.2
00 17.06 ЮВ 1 30 км 9/0 2000 м
[Ac trans]
+10.5 +0.4 50 +11 +12 1015.0 1012.7 +1.2 +13.0
03 17.06 С 1 30 км 8/0 2000 м
[]
+6.9 -0.2 61 +7 +8 1014.5 1012.2
06 17.06 С 1 30 км 5/5 2000 м
[Ac As]
+5.9 +0.1 66 +6 +6 1014.7 1012.4 +1.2 +13.0 22
09 17.06 СЗ 1 30 км 5/0 2000 м
[]
+2.4 +0.8 89 +1 +1 1014.8 1012.5
12 17.06 С 1 30 км 6/6
[Ac trans]
+4.2 +1.0 80 +4 +5 1014.9 1012.6 +1.1 +13.0
15 17.06 ЮВ 3 45 км 3/0 2000 м
[]
+7.5 +2.1 69 +5 +11 1014.5 1012.2
18 17.06 В 3 45 км 3/3 1000 м
[Cu hum Ac cast Cc]
+8.9 +2.2 63 +7 +15 1013.5 1011.2 +1.1 +11.1
21 17.06 Ю 7 45 км 8/0
[]
+16.2 +1.2 36 +15 +16 1012.5 1010.2
00 18.06 Ю 6 45 км 8/0
[]
+16.6 +2.8 40 +16 +17 1011.7 1009.4 +1.1 +17.5
03 18.06 ЮЗ 3 30 км 6/0
[]
+11.6 +2.3 53 +10 +10 1011.6 1009.3
06 18.06 С 1 30 км 6/6
[Ac trans Ci fib]
+4.5 +0.8 77 +5 +5 1011.4 1009.1 +1.1 +17.5 20
09 18.06 Ю 1 30 км 8/0
[]
+4.1 +1.8 85 +4 +4 1011.2 1008.9 +2.1 +17.5
12 18.06 ЮЗ 6 30 км 6/6
[Ac As]
+8.1 +3.5 73 +4 +5 1010.8 1008.5 +2.5 +17.5
15 18.06 ЮВ 2 45 км 10/10 1500 м
[]
+6.1 +2.9 80 +4 +4 1010.5 1008.2
18 18.06 ЮЗ 6 45 км 10/0
[]
+14.4 +4.9 53 +13 +15 1009.4 1007.1 +2.5 +14.5
21 18.06 Ю 5 45 км 10/10 1500 м
[]
+18.9 +5.6 42 +19 +19 1008.9 1006.6
00 19.06 ЮЗ 4 45 км 10/10 1500 м
[Cu med, cong Ac lent]
+16.0 +7.1 55 +15 +15 1008.5 1006.2 +2.5 +19.3
03 19.06 С 2 30 км 10/10 1000 м
[]
+8.9 +6.9 87 +8 +8 1007.8 1005.5
06 19.06 С 1 30 км {дождь} 10/10 1000 м
[Sc Ac trans]
+5.6 +4.1 90 +5 +5 1006.7 1004.4 +2.5 +19.3 0.6 22
09 19.06 С 1 30 км 9/9 1500 м
[]
+6.0 +5.4 96 +5 +5 1006.1 1003.8
12 19.06 С 1 30 км 6/6 1500 м
[Sc Ac trans]
+9.5 +6.8 83 +10 +11 1006.5 1004.2 +4.4 +19.3
15 19.06 СЗ 3 30 км 8/8 600 м
[]
+12.9 +9.0 77 +12 +13 1007.3 1005.0 +4.4 +15.3
18 19.06 СЗ 7 30 км 8/8 300 м
[Sc]
+10.9 +6.4 74 +8 +8 1009.2 1006.9 +4.4 +15.3
21 19.06 СЗ 9 30 км 3/3 600 м
[]
+13.5 +3.1 49 +11 +12 1010.0 1007.7
00 20.06 СЗ 9 30 км 3/3 600 м
[Sc Ac As]
+11.6 +1.9 51 +8 +9 1011.1 1008.8 +4.4 +15.3
03 20.06 СЗ 6 30 км 9/9 600 м
[]
+6.8 +1.3 68 +2 +2 1012.8 1010.5
06 20.06 СЗ 6 30 км 10/10 600 м
[Sc]
+5.1 -0.1 69 0 0 1013.7 1011.4 +4.4 +15.3 1
09 20.06 СЗ 4 30 км 10/10 600 м
[]
+4.1 +0.1 75 -0 -0 1013.8 1011.5
12 20.06 СЗ 5 30 км 1/1 600 м
[Sc Ac trans]
+5.1 -0.7 66 +1 +2 1014.4 1012.1 +2.4 +15.3
15 20.06 СЗ 5 30 км 4/4 600 м
[]
+7.7 -0.2 57 +4 +7 1014.2 1011.9
18 20.06 СЗ 6 30 км 5/5 600 м
[Cu hum]
+10.7 +0.2 48 +8 +11 1013.1 1010.8 +2.4 +11.2
21 20.06 С 5 30 км 5/5 1000 м
[]
+11.1 -1.2 42 +9 +11 1012.5 1010.2
00 21.06 СЗ 5 30 км 6/1 1000 м
[Sc Ac As Ci fib]
+11.1 -1.4 42 +9 +10 1011.6 1009.3 +2.4 +12.2
03 21.06 С 2 30 км 9/9 600 м
[]
+9.3 0.0 52 +9 +9 1011.1 1008.8
06 21.06 С 1 30 км 8/1 1500 м
[Sc Ac trans]
+6.5 -0.1 63 +7 +7 1009.8 1007.5 +2.4 +12.2 19
09 21.06 С 3 30 км 9/0
[]
+5.3 +0.1 69 +3 +3 1009.6 1007.3
12 21.06 СВ 4 30 км 9/3 1500 м
[Sc Ac trans]
+5.2 0.0 69 +1 +2 1009.3 1007.0 +3.8 +12.2
15 21.06 С 4 30 км 5/5 300 м
[]
+8.3 +0.4 57 +5 +8 1009.0 1006.7
18 21.06 С 5 30 км 6/1 300 м
[Sc Ci fib]
+9.2 -1.7 46 +6 +11 1008.4 1006.1 +3.8 +9.6
21 21.06 С 6 30 км 8/8 300 м
[]
+11.2 -2.4 39 +9 +10 1007.9 1005.6
00 22.06 С 8 30 км 5/1 600 м
[Sc Ac As Ci fib]
+10.8 +1.1 51 +7 +8 1008.1 1005.8 +4.1 +12.3
03 22.06 С 6 45 км 4/4 1500 м
[]
+8.4 +1.4 61 +5 +5 1009.1 1006.8
06 22.06 С 7 45 км 4/0
[]
+4.7 +1.7 81 -1 -1 1009.8 1007.5 +3.7 +12.3 1
09 22.06 С 5 30 км 10/10 600 м
[]
+5.4 +2.6 82 +1 +1 1010.4 1008.1
12 22.06 С 8 30 км 10/10 600 м
[Cu Sc]
+6.4 +1.8 72 +1 +1 1011.5 1009.2 +3.7 +12.3
15 22.06 С 8 30 км 8/8 600 м
[]
+9.3 +1.6 59 +5 +6 1012.1 1009.8
18 22.06 С 7 30 км 8/8 1000 м
[Sc]
+11.9 +1.6 49 +9 +10 1012.7 1010.4 +3.7 +12.0
21 22.06 С 6 30 км 6/6 1500 м
[]
+12.5 -0.8 40 +10 +12 1013.1 1010.8
00 23.06 С 6 30 км 3/3 1000 м
[Sc]
+12.7 +0.8 44 +11 +11 1014.0 1011.7 +4.7 +13.4

 

Местоположение метеостанции Baker Lake Airport (Канада): широта 64.30 долгота -96.06 высота над уровнем моря 18 м.

В архиве по умолчанию представлена погода в Baker Lake Airport за последнюю неделю. Архивные данные за месяц целиком и за предыдущие месяцы, начиная с января 2011 года, Вы можете получить, выбрав интересующий диапазон дат из раскрывающегося списка и нажав кнопку "Ввод!".

Внимание! Время в таблицах - всемирное. Для получения местного времени необходимо прибавить поправку, которая в Baker Lake Airport равна -6 ч.

Смотрите также архив погоды в соседних городах и на ближайших метеорологических станциях:

Погода в Baker Lake Climate (Канада) (4 км)
Погода в Back River MAPS (Канада) (199 км)
Погода в Rankin Inlet (Канада) (256 км)
Погода в Dubawnt Lake (Канада) (302 км)
Погода в Robertson Lake (Канада) (314 км)
Погода в Wager Bay (Канада) (357 км)
Погода в Arviat Climate (Канада) (370 км)
Погода в Arviat (Канада) (370 км)
Погода в Arviat Airport (Канада) (371 км)
Погода в Hanbury River ARS (Канада) (451 км)

Пояснения к столбцам:

Ветер - указаны скорость ветра в м/с - средняя за 10 мин, порывы в срок и между сроками (в фигурных скобках) и направление, откуда дует ветер: С - северный, СВ - северо-восточный, В - восточный, ЮВ - юго-восточный, Ю - южный, ЮЗ - юго-западный, З - западный, СЗ - северо-западный.
Видимость - горизонтальная дальность видимости в метрах или километрах. При видимости от 1 до 10 км при отсутствии осадков обычно наблюдается дымка, при ухудшении видимости до 1 км и менее - туман. В сухую погоду видимость может ухудшаться дымом, пылью или мглою.
Явления - указаны атмосферные явления, наблюдавшиеся в срок или в последний час перед сроком; фигурными скобками обозначены явления, наблюдавшиеся между сроками (за 1-3 часа до срока); квадратными скобками обозначены град или гололедные отложения с указанием их диаметра в мм.
Облачность - указаны через наклонную черту общая и нижняя облачность в баллах и высота нижней границы облаков в метрах; квадратными скобками обозначены формы облаков: Ci - перистые, Cs - перисто-слоистые, Cc - перисто-кучевые, Ac - высококучевые, As - высокослоистые, Sc - слоисто-кучевые, Ns - слоисто-дождевые, Cu - кучевые, Cb - кучево-дождевые. Подробнее классификацию облаков см. в Атласе облаков (PDF).
T - Температура воздуха - температура, измеренная на высоте 2 м над землей.
Td - Температура точки росы - температура, при понижении до которой содержащийся в воздухе водяной пар достигнет насыщения.
f - Относительная влажность воздуха - влажноcть воздуха, измеренная на высоте 2 м над землей.
Te - Эффективная температура - температура, которую ощущает одетый по сезону человек в тени. Характеристика душности погоды. При расчете учитывается влияние влажности воздуха и скорости ветра на теплоощущения человека.
Tes - Эффективная температура на солнце - температура, которую ощущает человек, с поправкой на солнечный нагрев. Характеристика знойности погоды. Зависит от высоты солнца над горизонтом, облачности и скорости ветра. Ночью, в пасмурную погоду, а также при ветре 12 м/с и более поправка равна нулю.
P - Атмосферное давление - приведенное к уровню моря атмосферное давление.
Po - Атмосферное давление - измеренное на уровне метеостанции атмосферное давление.
Tmin - Минимальная температура - минимум температуры воздуха на высоте 2 м над землей.
Tmax - Максимальная температура - максимум температуры воздуха на высоте 2 м над землей.
R - Количество осадков - Количество выпавших осадков за период времени, мм. При наведении курсора мыши на число - период времени, за который выпало указанное количество осадков.
R24 - Количество осадков - Количество выпавших осадков за 24 часа, мм.
S - Снежный покров - Высота снежного покрова, см. При наведении курсора мыши на число - состояние снежного покрова и степень покрытия местности в баллах.